Ouarzazate, Morocco

7:23 AM WET on December 14, 2017 (GMT +0000)
Ouarzazate

Weather History for GMMZ - December, 2012

Change the Weather History Date:

Tuesday, December 4, 2012

  Actual Average Record
Temperature  
Mean Temperature 45 °F -  
Max Temperature 64 °F 62 °F - ()
Min Temperature 26 °F 36 °F - ()
Degree Days  
Heating Degree Days 20    
Moisture  
Dew Point 12 °F    
Average Humidity 28    
Maximum Humidity 51    
Minimum Humidity 6    
Precipitation  
Precipitation 0.00 in 0.01 in - ()
Sea Level Pressure  
Sea Level Pressure 30.35 in    
Wind  
Wind Speed 1 mph ()    
Max Wind Speed 7 mph    
Max Gust Speed -    
Visibility 12.0 miles    
Events      
T = Trace of Precipitation, MM = Missing Value Source: Averaged Metar Reports

Daily Weather History Graph

Daily Weather History Graph

Search for Another Location

Airport or City:

Trip Planner

Search our weather history database for the weather conditions in past years. The results will help you decide how hot, cold, wet, or windy it might be!

Date:

Astronomy

Dec. 04, 2012 Rise Set
Actual Time 7:10 AM WET 5:25 PM WET
Civil Twilight 6:44 AM WET 5:51 PM WET
Nautical Twilight 6:14 AM WET 6:21 PM WET
Astronomical Twilight 5:44 AM WET 6:51 PM WET
Moon 10:44 PM WET (12/4) 11:09 AM WET (12/4)
Length of Visible Light 11h 07m
Length of Day
10h 14m
Waning Gibbous, 71% of the Moon is Illuminated
Dec 4
Waning Gibbous
Dec 6
Last Quarter
Dec 13
New
Dec 20
First Quarter
Dec 28
Full

Hourly Weather History & Observations

Time (WET) Temp. Dew Point Humidity Pressure Visibility Wind Dir Wind Speed Gust Speed Precip Events Conditions
12:00 AM 39 °F 13 °F 20%  in 12 mi West 1.2 mph - -  
12:00 AM 39.2 °F 12.2 °F 33% 30.42 in - Variable 1.2 mph - N/A   Clear
1:00 AM 33.8 °F 14.0 °F 44% 30.39 in - Variable 1.2 mph - N/A   Clear
2:00 AM 35.6 °F 15.8 °F 44% 30.39 in - Variable 2.3 mph - N/A   Clear
3:00 AM 31 °F 13 °F 33%  in 12 mi Calm Calm - -  
3:00 AM 30.2 °F 12.2 °F 47% 30.39 in - Calm Calm - N/A   Clear
4:00 AM 28.4 °F 12.2 °F 51% 30.36 in - Variable 1.2 mph - N/A   Clear
5:00 AM 28.4 °F 10.4 °F 47% 30.36 in - Variable 1.2 mph - N/A   Clear
6:00 AM 28 °F 11 °F 35%  in 12 mi NW 2.3 mph - -  
6:00 AM 28.4 °F 10.4 °F 47% 30.36 in - Variable 2.3 mph - N/A   Clear
7:00 AM 30.2 °F 10.4 °F 44% 30.39 in - Calm Calm - N/A   Clear
8:00 AM 26.6 °F 10.4 °F 51% 30.39 in - Variable 1.2 mph - N/A   Clear
9:00 AM 33 °F 13 °F 29%  in 12 mi Calm Calm - -  
9:00 AM 33.8 °F 12.2 °F 41% 30.42 in - Calm Calm - N/A   Clear
10:00 AM 41.0 °F 14.0 °F 33% 30.42 in - Calm Calm - N/A   Clear
11:00 AM 46.4 °F 14.0 °F 27% 30.42 in - Calm Calm - N/A   Clear
12:00 PM 50 °F 15 °F 13%  in 12 mi Calm Calm - -  
12:00 PM 50.0 °F 14.0 °F 24% 30.39 in - Calm Calm - N/A   Clear
1:00 PM 53.6 °F 12.2 °F 19% 30.33 in - Calm Calm - N/A   Clear
2:00 PM 57.2 °F 10.4 °F 16% 30.30 in - Variable 1.2 mph - N/A   Clear
3:00 PM 60 °F 11 °F 6%  in 12 mi Calm Calm - -  
3:00 PM 60.8 °F 10.4 °F 14% 30.30 in - Calm Calm - N/A   Clear
4:00 PM 62.6 °F 10.4 °F 13% 30.27 in - Calm Calm - N/A   Clear
5:00 PM 60.8 °F 10.4 °F 14% 30.27 in - SE 2.3 mph - N/A   Clear
6:00 PM 59 °F 11 °F 7%  in 12 mi NNW 2.3 mph - -  
6:00 PM 59.0 °F 10.4 °F 15% 30.27 in - NNW 2.3 mph - N/A   Clear
7:00 PM 55.4 °F 10.4 °F 17% 30.27 in - NNW 3.5 mph - N/A   Clear
8:00 PM 53.6 °F 10.4 °F 18% 30.30 in - West 6.9 mph - N/A   Clear
9:00 PM 52 °F 12 °F 10%  in 12 mi WSW 4.6 mph - -  
9:00 PM 51.8 °F 12.2 °F 21% 30.30 in - WSW 4.6 mph - N/A   Clear
10:00 PM 42.8 °F 14.0 °F 31% 30.30 in - NW 1.2 mph - N/A   Clear
11:00 PM 44.6 °F 14.0 °F 29% 30.30 in - West 2.3 mph - N/A   Clear